20070712,000021,1209602,32.887368,-123.742613,2.3,17.862,33.160,43.957,1800.42,0.0,0.447,18.301, NaN, NaN,23.799,   NaN,18.45,1015.54,81.33,18.21,340.8,339.3,6.9,7.4,167.0,182.9,2.6,3.5,NaN, NaN,22.0,242.0,NaN,1184198421,NaN,2,10.3,000021,   NaN,242.0,     NaN,      NaN,10.08,NaN,NaN,18.255, NaN,NaN,NaN, NaN, NaN
20070712,000052,1209633,32.886651,-123.744148,2.3,17.821,33.160,43.916,1671.34,0.0,0.420,18.297, NaN, NaN,23.804,   NaN,18.45,1015.54,81.35,18.21,339.0,338.8,7.0,7.3,167.0,179.6,2.6,3.1,NaN, NaN,22.0,242.0,NaN,1184198452,NaN,2,10.3,000052,   NaN,241.9,     NaN,      NaN,10.07,NaN,NaN,18.213, NaN,NaN,NaN, NaN, NaN
20070712,000121,1209663,32.885985,-123.745581,2.3,17.797,33.160,43.892,1633.21,0.0,0.412,18.291, NaN, NaN,23.806,   NaN,18.44,1015.56,81.33,18.19,339.2,338.4,7.0,7.2,184.0,182.7,2.6,2.9,NaN, NaN,24.0,241.9,NaN,1184198481,NaN,2,10.3,000081,   NaN,241.9,     NaN,      NaN,10.01,NaN,NaN,18.189, NaN,NaN,NaN, NaN, NaN
20070712,000152,1209693,32.885238,-123.747105,2.3,17.793,33.161,43.889,1575.52,0.0,0.399,18.291, NaN, NaN,23.799,   NaN,18.43,1015.58,81.23,18.17,339.1,338.4,6.9,7.2,186.8,181.8,2.9,3.0,NaN, NaN,24.0,241.6,NaN,1184198512,NaN,2,10.3,000112,   NaN,241.6,     NaN,      NaN,9.99,NaN,NaN,18.185, NaN,NaN,NaN, NaN, NaN
20070712,000221,1209722,32.884545,-123.748540,2.3,17.821,33.161,43.916,1560.68,0.0,0.396,18.283, NaN, NaN,23.796,   NaN,18.44,1015.59,81.15,18.18,339.5,338.4,6.9,7.4,182.0,181.5,2.5,3.2,NaN, NaN,24.0,241.5,NaN,1184198541,NaN,2,10.3,000141,   NaN,241.5,     NaN,      NaN,9.88,NaN,NaN,18.213, NaN,NaN,NaN, NaN, NaN
20070712,000251,1209752,32.883846,-123.750026,2.3,17.829,33.162,43.925,1556.31,0.0,0.395,18.281, NaN, NaN,23.799,   NaN,18.45,1015.58,81.07,18.17,340.9,338.7,7.0,7.4,186.3,185.3,2.5,3.0,NaN, NaN,23.0,242.0,NaN,1184198571,NaN,2,10.3,000171,   NaN,242.0,     NaN,      NaN,10.12,NaN,NaN,18.222, NaN,NaN,NaN, NaN, NaN
20070712,000321,1209782,32.883141,-123.751511,2.3,17.831,33.163,43.928,1588.17,0.0,0.402,18.281, NaN, NaN,23.793,   NaN,18.44,1015.57,80.82,18.15,341.5,339.6,7.1,7.4,184.4,188.0,3.2,3.2,NaN, NaN,22.0,242.0,NaN,1184198601,NaN,2,10.3,000201,   NaN,242.1,     NaN,      NaN,10.04,NaN,NaN,18.224, NaN,NaN,NaN, NaN, NaN
20070712,000351,1209813,32.882455,-123.753005,2.3,17.852,33.163,43.950,1546.83,0.0,0.393,18.281, NaN, NaN,23.786,   NaN,18.47,1015.60,80.65,18.14,340.0,339.2,7.2,7.4,176.4,180.2,2.9,2.9,NaN, NaN,22.0,242.0,NaN,1184198631,NaN,2,10.3,000231,   NaN,242.0,     NaN,      NaN,10.00,NaN,NaN,18.245, NaN,NaN,NaN, NaN, NaN
20070712,000421,1209842,32.881761,-123.754503,2.3,17.878,33.162,43.974,1515.99,0.0,0.387,18.281, NaN, NaN,23.786,   NaN,18.50,1015.60,80.61,18.15,340.0,339.2,7.1,7.3,176.8,179.3,2.6,2.9,NaN, NaN,23.0,242.0,NaN,1184198661,NaN,2,10.3,000261,   NaN,242.0,     NaN,      NaN,10.09,NaN,NaN,18.271, NaN,NaN,NaN, NaN, NaN
20070712,000452,1209873,32.881040,-123.756046,2.3,17.882,33.164,43.979,1513.99,0.0,0.387,18.281, NaN, NaN,23.785,   NaN,18.49,1015.60,80.63,18.19,340.4,338.8,7.0,7.2,165.0,177.9,2.7,3.0,NaN, NaN,24.0,241.9,NaN,1184198691,NaN,2,10.3,000292,   NaN,241.9,     NaN,      NaN,10.03,NaN,NaN,18.275, NaN,NaN,NaN, NaN, NaN
20070712,000521,1209902,32.880341,-123.757485,2.3,17.890,33.163,43.987,1526.33,0.0,0.389,18.281, NaN, NaN,23.782,   NaN,18.49,1015.56,80.64,18.22,340.6,338.9,7.0,7.2,190.6,187.1,2.8,3.0,NaN, NaN,24.0,241.8,NaN,1184198721,NaN,2,10.4,000321,   NaN,241.8,     NaN,      NaN,10.05,NaN,NaN,18.283, NaN,NaN,NaN, NaN, NaN
20070712,000552,1209933,32.879606,-123.759026,2.3,17.895,33.164,43.992,1516.10,0.0,0.387,18.281, NaN, NaN,23.786,   NaN,18.47,1015.55,80.56,18.23,341.7,339.4,7.0,7.4,185.7,177.7,2.7,2.8,NaN, NaN,24.0,241.8,NaN,1184198752,NaN,2,10.4,000352,   NaN,241.8,     NaN,      NaN,10.03,NaN,NaN,18.288, NaN,NaN,NaN, NaN, NaN
20070712,000621,1209962,32.878926,-123.760476,2.3,17.884,33.161,43.981,1492.71,0.0,0.382,18.287, NaN, NaN,23.788,   NaN,18.45,1015.54,80.54,18.23,341.4,339.0,6.9,7.3,179.1,176.5,2.7,2.7,NaN, NaN,24.0,242.0,NaN,1184198781,NaN,2,10.4,000381,   NaN,242.0,     NaN,      NaN,10.07,NaN,NaN,18.277, NaN,NaN,NaN, NaN, NaN
20070712,000651,1209993,32.878203,-123.761963,2.3,17.863,33.159,43.958,1489.78,0.0,0.382,18.291, NaN, NaN,23.792,   NaN,18.47,1015.54,80.65,18.24,341.5,339.3,7.0,7.3,183.1,180.6,2.5,3.0,NaN, NaN,22.0,241.9,NaN,1184198811,NaN,2,10.4,000411,   NaN,241.9,     NaN,      NaN,10.09,NaN,NaN,18.256, NaN,NaN,NaN, NaN, NaN
20070712,000722,1210023,32.877481,-123.763501,2.3,17.846,33.160,43.941,1461.03,0.0,0.375,18.291, NaN, NaN,23.789,   NaN,18.44,1015.55,80.40,18.23,341.2,339.2,6.9,7.3,176.8,184.7,2.1,2.8,NaN, NaN,24.0,241.9,NaN,1184198842,NaN,2,10.4,000442,   NaN,241.9,     NaN,      NaN,10.02,NaN,NaN,18.239, NaN,NaN,NaN, NaN, NaN
20070712,000751,1210052,32.876790,-123.764931,2.3,17.856,33.159,43.950,1432.80,0.0,0.370,18.291, NaN, NaN,23.782,   NaN,18.42,1015.56,80.27,18.22,341.3,339.5,7.0,7.4,176.3,183.0,2.9,3.3,NaN, NaN,24.0,241.8,NaN,1184198871,NaN,2,10.3,000471,   NaN,241.9,     NaN,      NaN,10.08,NaN,NaN,18.249, NaN,NaN,NaN, NaN, NaN
20070712,000821,1210082,32.876101,-123.766420,2.3,17.881,33.160,43.974,1421.07,0.0,0.367,18.291, NaN, NaN,23.778,   NaN,18.46,1015.55,80.27,18.20,340.7,339.1,7.3,7.5,186.8,184.5,2.7,3.2,NaN, NaN,24.0,242.0,NaN,1184198901,NaN,2,10.3,000501,   NaN,242.0,     NaN,      NaN,10.13,NaN,NaN,18.274, NaN,NaN,NaN, NaN, NaN
20070712,000851,1210112,32.875388,-123.767908,2.3,17.896,33.161,43.988,1418.95,0.0,0.367,18.291, NaN, NaN,23.779,   NaN,18.44,1015.54,79.96,18.18,339.4,338.4,7.1,7.5,171.7,182.8,3.0,3.1,NaN, NaN,23.0,242.0,NaN,1184198931,NaN,2,10.3,000531,   NaN,242.0,     NaN,      NaN,10.22,NaN,NaN,18.289, NaN,NaN,NaN, NaN, NaN
20070712,000921,1210143,32.874683,-123.769395,2.3,17.900,33.161,43.992,1405.49,0.0,0.364,18.291, NaN, NaN,23.781,   NaN,18.46,1015.54,79.81,18.17,340.0,339.4,7.0,7.4,176.4,186.9,2.9,3.2,NaN, NaN,22.0,242.0,NaN,1184198961,NaN,2,10.3,000561,   NaN,242.0,     NaN,      NaN,9.96,NaN,NaN,18.293, NaN,NaN,NaN, NaN, NaN
20070712,000952,1210173,32.873968,-123.770935,2.3,17.901,33.162,43.995,1404.87,0.0,0.364,18.291, NaN, NaN,23.780,   NaN,18.50,1015.55,79.73,18.17,342.1,340.2,6.9,7.4,187.9,187.6,2.8,3.0,NaN, NaN,21.0,241.9,NaN,1184198992,NaN,2,10.3,000592,   NaN,241.8,     NaN,      NaN,9.99,NaN,NaN,18.294, NaN,NaN,NaN, NaN, NaN
20070712,001021,1210202,32.873303,-123.772375,2.3,17.900,33.162,43.994,1409.16,0.0,0.365,18.291, NaN, NaN,23.786,   NaN,18.50,1015.54,79.35,18.15,341.4,340.1,7.1,7.4,185.5,182.8,2.6,3.1,NaN, NaN,21.0,242.0,NaN,1184199021,NaN,2,10.3,000621,   NaN,242.0,     NaN,      NaN,10.07,NaN,NaN,18.293, NaN,NaN,NaN, NaN, NaN
20070712,001052,1210234,32.872591,-123.773921,2.3,17.888,33.163,43.984,1418.50,0.0,0.367,18.291, NaN, NaN,23.783,   NaN,18.48,1015.50,79.17,18.15,340.4,339.4,7.0,7.4,170.4,179.7,2.8,3.3,NaN, NaN,22.0,242.0,NaN,1184199052,NaN,2,10.3,000652,   NaN,242.0,     NaN,      NaN,9.93,NaN,NaN,18.281, NaN,NaN,NaN, NaN, NaN
20070712,001121,1210262,32.871913,-123.775356,2.3,17.884,33.164,43.981,1401.44,0.0,0.363,18.291, NaN, NaN,23.787,   NaN,18.50,1015.49,78.98,18.17,341.0,339.5,6.8,7.4,177.6,182.0,3.0,3.0,NaN, NaN,22.0,241.8,NaN,1184199081,NaN,2,10.3,000681,   NaN,241.8,     NaN,      NaN,10.11,NaN,NaN,18.277, NaN,NaN,NaN, NaN, NaN
20070712,001152,1210293,32.871195,-123.776891,2.3,17.884,33.163,43.981,1399.16,0.0,0.362,18.291, NaN, NaN,23.790,   NaN,18.55,1015.52,78.94,18.22,341.0,340.0,7.0,7.3,186.9,188.5,2.9,2.8,NaN, NaN,22.0,241.7,NaN,1184199112,NaN,2,10.3,000712,   NaN,241.7,     NaN,      NaN,10.09,NaN,NaN,18.277, NaN,NaN,NaN, NaN, NaN
20070712,001221,1210323,32.870526,-123.778336,2.3,17.870,33.163,43.968,1421.82,0.0,0.367,18.291, NaN, NaN,23.791,   NaN,18.54,1015.54,78.81,18.23,341.4,340.8,7.0,7.4,176.1,181.9,2.9,3.0,NaN, NaN,22.0,241.7,NaN,1184199141,NaN,2,10.3,000741,   NaN,241.7,     NaN,      NaN,10.23,NaN,NaN,18.263, NaN,NaN,NaN, NaN, NaN
20070712,001252,1210353,32.869818,-123.779873,2.3,17.858,33.163,43.956,1392.93,0.0,0.361,18.291, NaN, NaN,23.800,   NaN,18.50,1015.52,78.61,18.25,341.3,340.2,6.9,7.4,180.5,185.4,2.6,2.8,NaN, NaN,19.0,241.9,NaN,1184199172,NaN,2,10.3,000772,   NaN,241.9,     NaN,      NaN,10.11,NaN,NaN,18.251, NaN,NaN,NaN, NaN, NaN
20070712,001321,1210382,32.869145,-123.781311,2.3,17.826,33.162,43.925,1399.69,0.0,0.363,18.281, NaN, NaN,23.799,   NaN,18.50,1015.51,78.47,18.24,340.2,339.4,6.9,7.4,174.3,179.1,3.1,3.2,NaN, NaN,18.0,242.0,NaN,1184199201,NaN,2,10.3,000801,   NaN,242.0,     NaN,      NaN,10.16,NaN,NaN,18.219, NaN,NaN,NaN, NaN, NaN
20070712,001352,1210414,32.868440,-123.782853,2.3,17.820,33.164,43.919,1406.25,0.0,0.364,18.277, NaN, NaN,23.802,   NaN,18.50,1015.52,78.36,18.23,340.6,340.0,7.0,7.3,188.5,193.0,2.4,3.2,NaN, NaN,18.0,241.9,NaN,1184199232,NaN,2,10.3,000832,   NaN,241.9,     NaN,      NaN,9.99,NaN,NaN,18.212, NaN,NaN,NaN, NaN, NaN
20070712,001421,1210442,32.867768,-123.784293,2.3,17.821,33.163,43.921,1402.74,0.0,0.363,18.269, NaN, NaN,23.798,   NaN,18.53,1015.51,78.40,18.24,341.7,340.3,7.0,7.4,187.7,183.4,2.6,2.9,NaN, NaN,18.0,242.0,NaN,1184199261,NaN,2,10.3,000861,   NaN,242.0,     NaN,      NaN,10.09,NaN,NaN,18.213, NaN,NaN,NaN, NaN, NaN
20070712,001452,1210473,32.867048,-123.785828,2.3,17.826,33.164,43.925,1401.90,0.0,0.363,18.261, NaN, NaN,23.802,   NaN,18.53,1015.51,78.33,18.27,338.0,339.3,6.8,7.4,173.7,179.5,2.6,2.9,NaN, NaN,18.0,241.9,NaN,1184199292,NaN,2,10.3,000892,   NaN,241.9,     NaN,      NaN,10.17,NaN,NaN,18.218, NaN,NaN,NaN, NaN, NaN
20070712,001521,1210503,32.866378,-123.787253,2.3,17.826,33.164,43.924,1377.18,0.0,0.358,18.261, NaN, NaN,23.800,   NaN,18.54,1015.52,78.37,18.28,336.9,338.3,6.8,7.4,174.8,178.2,2.8,3.0,NaN, NaN,17.0,241.8,NaN,1184199321,NaN,2,10.3,000921,   NaN,241.8,     NaN,      NaN,10.10,NaN,NaN,18.218, NaN,NaN,NaN, NaN, NaN
20070712,001551,1210532,32.865696,-123.788735,2.3,17.834,33.164,43.935,1351.36,0.0,0.352,18.251, NaN, NaN,23.790,   NaN,18.52,1015.52,78.45,18.29,339.0,338.7,7.0,7.2,176.2,182.7,2.5,3.0,NaN, NaN,17.0,241.8,NaN,1184199351,NaN,2,10.2,000951,   NaN,241.8,     NaN,      NaN,10.12,NaN,NaN,18.227, NaN,NaN,NaN, NaN, NaN
20070712,001622,1210564,32.864980,-123.790260,2.3,17.866,33.165,43.965,1347.95,0.0,0.352,18.251, NaN, NaN,23.789,   NaN,18.50,1015.49,78.40,18.30,339.8,338.8,7.0,7.2,181.6,187.5,2.6,2.9,NaN, NaN,17.0,241.9,NaN,1184199382,NaN,2,10.2,000982,   NaN,241.9,     NaN,      NaN,10.00,NaN,NaN,18.259, NaN,NaN,NaN, NaN, NaN
20070712,001652,1210593,32.864300,-123.791738,2.3,17.877,33.165,43.976,1369.64,0.0,0.356,18.251, NaN, NaN,23.784,   NaN,18.52,1015.48,78.50,18.29,338.4,338.0,6.9,7.4,182.0,183.5,2.4,3.1,NaN, NaN,17.0,241.9,NaN,1184199412,NaN,2,10.2,001012,   NaN,241.9,     NaN,      NaN,10.08,NaN,NaN,18.270, NaN,NaN,NaN, NaN, NaN
20070712,001721,1210622,32.863650,-123.793118,2.3,17.893,33.166,43.992,1356.90,0.0,0.354,18.251, NaN, NaN,23.781,   NaN,18.51,1015.48,78.48,18.28,339.7,338.6,7.1,7.4,169.7,180.2,2.7,3.5,NaN, NaN,17.0,241.8,NaN,1184199441,NaN,2,10.2,001041,   NaN,241.9,     NaN,      NaN,9.99,NaN,NaN,18.286, NaN,NaN,NaN, NaN, NaN
20070712,001752,1210653,32.862911,-123.794701,2.3,17.900,33.166,43.999,1368.54,0.0,0.356,18.251, NaN, NaN,23.785,   NaN,18.49,1015.49,78.40,18.27,340.2,338.8,7.0,7.5,140.3,179.1,2.6,3.4,NaN, NaN,17.0,241.7,NaN,1184199472,NaN,2,10.3,001072,   NaN,241.7,     NaN,      NaN,10.03,NaN,NaN,18.293, NaN,NaN,NaN, NaN, NaN
20070712,001821,1210682,32.862246,-123.796136,2.3,17.893,33.166,43.993,1373.31,0.0,0.357,18.251, NaN, NaN,23.786,   NaN,18.50,1015.46,78.46,18.29,339.1,338.8,6.7,7.4,190.6,183.7,3.0,2.9,NaN, NaN,18.0,242.1,NaN,1184199501,NaN,2,10.3,001101,   NaN,242.1,     NaN,      NaN,10.05,NaN,NaN,18.286, NaN,NaN,NaN, NaN, NaN
20070712,001852,1210713,32.861531,-123.797675,2.3,17.888,33.169,43.989,1399.52,0.0,0.363,18.251, NaN, NaN,23.788,   NaN,18.50,1015.46,78.50,18.29,340.8,339.7,6.9,7.4,183.1,184.9,2.3,3.2,NaN, NaN,18.0,241.9,NaN,1184199532,NaN,2,10.3,001132,   NaN,241.9,     NaN,      NaN,10.01,NaN,NaN,18.281, NaN,NaN,NaN, NaN, NaN
20070712,001921,1210742,32.860846,-123.799103,2.3,17.890,33.170,43.992,1388.69,0.0,0.360,18.251, NaN, NaN,23.787,   NaN,18.51,1015.47,78.44,18.26,340.8,338.9,7.2,7.5,180.0,185.3,3.1,3.3,NaN, NaN,18.0,241.7,NaN,1184199561,NaN,2,10.3,001161,   NaN,241.7,     NaN,      NaN,9.95,NaN,NaN,18.283, NaN,NaN,NaN, NaN, NaN
20070712,001951,1210772,32.860163,-123.800586,2.3,17.901,33.170,44.005,1412.55,0.0,0.365,18.251, NaN, NaN,23.786,   NaN,18.51,1015.48,78.34,18.25,338.8,337.8,7.2,7.6,170.6,179.4,2.6,3.2,NaN, NaN,18.0,242.2,NaN,1184199591,NaN,2,10.3,001191,   NaN,242.2,     NaN,      NaN,10.09,NaN,NaN,18.294, NaN,NaN,NaN, NaN, NaN
20070712,002021,1210802,32.859475,-123.802073,2.3,17.907,33.172,44.012,1404.73,0.0,0.364,18.259, NaN, NaN,23.782,   NaN,18.51,1015.46,78.19,18.24,339.1,337.4,7.0,7.5,189.4,184.2,2.6,3.6,NaN, NaN,18.0,242.1,NaN,1184199621,NaN,2,10.3,001221,   NaN,242.1,     NaN,      NaN,10.07,NaN,NaN,18.300, NaN,NaN,NaN, NaN, NaN
20070712,002052,1210833,32.858766,-123.803603,2.3,17.919,33.172,44.025,1431.33,0.0,0.369,18.261, NaN, NaN,23.783,   NaN,18.53,1015.46,78.19,18.23,339.7,338.3,7.0,7.5,185.5,181.7,3.0,3.4,NaN, NaN,19.0,242.0,NaN,1184199652,NaN,2,10.3,001252,   NaN,242.0,     NaN,      NaN,10.09,NaN,NaN,18.312, NaN,NaN,NaN, NaN, NaN
20070712,002122,1210863,32.858076,-123.805078,2.3,17.930,33.172,44.036,1488.88,0.0,0.381,18.261, NaN, NaN,23.776,   NaN,18.55,1015.49,78.05,18.24,340.5,338.6,7.1,7.4,192.7,186.7,3.1,3.1,NaN, NaN,19.0,241.9,NaN,1184199682,NaN,2,10.2,001282,   NaN,241.9,     NaN,      NaN,10.07,NaN,NaN,18.323, NaN,NaN,NaN, NaN, NaN
20070712,002151,1210892,32.857413,-123.806508,2.3,17.935,33.173,44.041,1514.97,0.0,0.387,18.265, NaN, NaN,23.784,   NaN,18.57,1015.48,77.90,18.26,340.7,339.4,7.3,7.4,188.3,187.2,2.6,2.9,NaN, NaN,19.0,241.8,NaN,1184199711,NaN,2,10.2,001311,   NaN,241.8,     NaN,      NaN,10.08,NaN,NaN,18.328, NaN,NaN,NaN, NaN, NaN
20070712,002222,1210924,32.856703,-123.808028,2.3,17.920,33.174,44.027,1523.96,0.0,0.389,18.271, NaN, NaN,23.780,   NaN,18.58,1015.47,77.78,18.27,340.6,339.4,7.0,7.3,185.3,180.2,2.8,3.1,NaN, NaN,19.0,241.7,NaN,1184199742,NaN,2,10.2,001342,   NaN,241.7,     NaN,      NaN,10.11,NaN,NaN,18.313, NaN,NaN,NaN, NaN, NaN
20070712,002251,1210952,32.856048,-123.809461,2.3,17.936,33.172,44.044,1470.05,0.0,0.377,18.279, NaN, NaN,23.771,   NaN,18.57,1015.46,77.70,18.26,338.8,338.6,7.0,7.3,183.0,181.8,3.0,3.2,NaN, NaN,18.0,242.0,NaN,1184199771,NaN,2,10.2,001371,   NaN,242.1,     NaN,      NaN,9.93,NaN,NaN,18.329, NaN,NaN,NaN, NaN, NaN
20070712,002321,1210983,32.855355,-123.810930,2.3,17.954,33.172,44.060,1405.75,0.0,0.364,18.281, NaN, NaN,23.775,   NaN,18.57,1015.45,77.51,18.26,338.6,338.0,7.2,7.3,168.2,179.4,2.9,3.2,NaN, NaN,18.0,241.9,NaN,1184199801,NaN,2,10.2,001401,   NaN,242.0,     NaN,      NaN,9.96,NaN,NaN,18.347, NaN,NaN,NaN, NaN, NaN
20070712,002351,1211013,32.854673,-123.812405,2.3,17.949,33.173,44.055,1386.81,0.0,0.360,18.281, NaN, NaN,23.778,   NaN,18.56,1015.46,77.49,18.27,338.9,337.4,6.9,7.3,163.9,181.3,3.2,3.6,NaN, NaN,17.0,241.9,NaN,1184199831,NaN,2,10.2,001431,   NaN,241.9,     NaN,      NaN,9.78,NaN,NaN,18.342, NaN,NaN,NaN, NaN, NaN
20070712,002421,1211042,32.853991,-123.813885,2.3,17.950,33.172,44.056,1346.04,0.0,0.351,18.273, NaN, NaN,23.774,   NaN,18.55,1015.41,77.32,18.25,336.8,336.4,6.8,7.6,169.7,183.2,2.7,3.7,NaN, NaN,18.0,242.0,NaN,1184199861,NaN,2,10.2,001461,   NaN,241.9,     NaN,      NaN,9.97,NaN,NaN,18.343, NaN,NaN,NaN, NaN, NaN
20070712,002451,1211072,32.853288,-123.815350,2.3,17.949,33.173,44.055,1326.07,0.0,0.347,18.271, NaN, NaN,23.778,   NaN,18.55,1015.40,77.11,18.24,336.1,335.9,6.7,7.8,179.1,182.9,3.2,3.5,NaN, NaN,18.0,241.8,NaN,1184199891,NaN,2,10.2,001491,   NaN,241.8,     NaN,      NaN,10.07,NaN,NaN,18.342, NaN,NaN,NaN, NaN, NaN
20070712,002521,1211102,32.852615,-123.816841,2.3,17.943,33.173,44.050,1344.02,0.0,0.351,18.271, NaN, NaN,23.779,   NaN,18.59,1015.41,77.14,18.26,337.1,336.8,6.8,7.7,181.4,185.1,3.0,3.5,NaN, NaN,18.0,241.6,NaN,1184199921,NaN,2,10.2,001521,   NaN,241.7,     NaN,      NaN,10.03,NaN,NaN,18.336, NaN,NaN,NaN, NaN, NaN
20070712,002551,1211132,32.851920,-123.818311,2.3,17.939,33.173,44.045,1325.24,0.0,0.347,18.271, NaN, NaN,23.781,   NaN,18.57,1015.43,77.08,18.28,337.2,336.3,6.8,7.7,158.4,177.7,2.7,3.7,NaN, NaN,18.0,241.8,NaN,1184199951,NaN,2,10.2,001551,   NaN,241.8,     NaN,      NaN,10.01,NaN,NaN,18.332, NaN,NaN,NaN, NaN, NaN
20070712,002622,1211163,32.851210,-123.819835,2.3,17.937,33.173,44.043,1253.18,0.0,0.332,18.271, NaN, NaN,23.775,   NaN,18.56,1015.42,77.05,18.28,336.8,335.5,6.8,7.7,186.8,185.7,2.9,3.3,NaN, NaN,18.0,241.9,NaN,1184199982,NaN,2,10.2,001582,   NaN,241.9,     NaN,      NaN,9.87,NaN,NaN,18.330, NaN,NaN,NaN, NaN, NaN
20070712,002652,1211193,32.850501,-123.821296,2.3,17.950,33.173,44.056,1231.23,0.0,0.327,18.271, NaN, NaN,23.777,   NaN,18.58,1015.38,76.89,18.28,338.6,337.5,7.0,7.6,165.3,185.3,3.1,4.0,NaN, NaN,19.0,241.9,NaN,1184200012,NaN,2,10.2,001612,   NaN,241.9,     NaN,      NaN,10.04,NaN,NaN,18.343, NaN,NaN,NaN, NaN, NaN
20070712,002721,1211222,32.849845,-123.822723,2.3,17.956,33.173,44.062,1202.44,0.0,0.321,18.271, NaN, NaN,23.772,   NaN,18.55,1015.41,76.84,18.29,338.1,337.0,7.1,7.7,168.2,183.3,3.1,4.0,NaN, NaN,19.0,242.0,NaN,1184200041,NaN,2,10.2,001641,   NaN,242.0,     NaN,      NaN,9.98,NaN,NaN,18.349, NaN,NaN,NaN, NaN, NaN
20070712,002752,1211254,32.849121,-123.824253,2.3,17.962,33.173,44.067,1188.85,0.0,0.318,18.271, NaN, NaN,23.775,   NaN,18.58,1015.44,76.80,18.28,335.7,335.5,6.9,7.8,166.5,180.8,2.7,3.5,NaN, NaN,19.0,242.0,NaN,1184200071,NaN,2,10.2,001672,   NaN,242.0,     NaN,      NaN,10.04,NaN,NaN,18.355, NaN,NaN,NaN, NaN, NaN
20070712,002822,1211283,32.848425,-123.825730,2.3,17.955,33.173,44.060,1184.74,0.0,0.317,18.271, NaN, NaN,23.776,   NaN,18.57,1015.43,76.74,18.27,335.4,335.5,6.9,7.7,159.0,181.7,2.6,4.1,NaN, NaN,19.0,241.8,NaN,1184200102,NaN,2,10.3,001702,   NaN,241.8,     NaN,      NaN,9.94,NaN,NaN,18.348, NaN,NaN,NaN, NaN, NaN
20070712,002851,1211312,32.847756,-123.827155,2.3,17.955,33.174,44.061,1199.21,0.0,0.320,18.273, NaN, NaN,23.770,   NaN,18.54,1015.39,76.62,18.27,336.0,335.7,6.9,7.7,152.6,179.5,2.8,3.4,NaN, NaN,19.0,241.9,NaN,1184200131,NaN,2,10.2,001731,   NaN,241.9,     NaN,      NaN,9.88,NaN,NaN,18.348, NaN,NaN,NaN, NaN, NaN
20070712,002922,1211343,32.847038,-123.828675,2.3,17.970,33.173,44.076,1192.62,0.0,0.319,18.281, NaN, NaN,23.773,   NaN,18.55,1015.39,76.52,18.27,335.1,335.0,6.7,7.8,166.7,179.3,3.0,3.9,NaN, NaN,18.0,241.9,NaN,1184200162,NaN,2,10.2,001762,   NaN,241.9,     NaN,      NaN,10.02,NaN,NaN,18.363, NaN,NaN,NaN, NaN, NaN
20070712,002951,1211372,32.846371,-123.830100,2.3,17.968,33.173,44.073,1212.08,0.0,0.323,18.281, NaN, NaN,23.773,   NaN,18.58,1015.42,76.60,18.28,334.7,334.5,6.7,7.7,174.0,176.3,4.5,3.8,NaN, NaN,18.0,241.9,NaN,1184200191,NaN,2,10.2,001791,   NaN,241.9,     NaN,      NaN,10.13,NaN,NaN,18.361, NaN,NaN,NaN, NaN, NaN
20070712,003022,1211404,32.845665,-123.831631,2.3,17.964,33.173,44.070,1197.72,0.0,0.320,18.281, NaN, NaN,23.773,   NaN,18.59,1015.41,76.68,18.30,335.9,335.2,6.9,7.6,172.7,183.5,2.8,3.5,NaN, NaN,18.0,241.9,NaN,1184200222,NaN,2,10.2,001822,   NaN,241.9,     NaN,      NaN,10.05,NaN,NaN,18.357, NaN,NaN,NaN, NaN, NaN
20070712,003051,1211432,32.845000,-123.833050,2.3,17.962,33.173,44.067,1179.90,0.0,0.316,18.281, NaN, NaN,23.774,   NaN,18.57,1015.40,76.58,18.30,335.0,334.6,6.6,7.7,172.0,175.9,4.5,4.0,NaN, NaN,19.0,242.1,NaN,1184200251,NaN,2,10.2,001851,   NaN,242.1,     NaN,      NaN,10.08,NaN,NaN,18.355, NaN,NaN,NaN, NaN, NaN
20070712,003121,1211462,32.844316,-123.834513,2.3,17.959,33.174,44.065,1171.55,0.0,0.314,18.281, NaN, NaN,23.775,   NaN,18.55,1015.40,76.68,18.30,334.4,334.4,6.3,7.7,181.8,181.2,3.0,3.1,NaN, NaN,18.0,242.0,NaN,1184200281,NaN,2,10.2,001881,   NaN,242.0,     NaN,      NaN,9.93,NaN,NaN,18.352, NaN,NaN,NaN, NaN, NaN
20070712,003151,1211493,32.843645,-123.835978,2.3,17.962,33.174,44.068,1177.99,0.0,0.316,18.281, NaN, NaN,23.765,   NaN,18.54,1015.39,76.90,18.35,335.2,335.1,6.7,7.6,164.6,176.7,2.4,3.8,NaN, NaN,18.0,241.9,NaN,1184200311,NaN,2,10.2,001911,   NaN,241.9,     NaN,      NaN,9.88,NaN,NaN,18.355, NaN,NaN,NaN, NaN, NaN
20070712,003222,1211523,32.842933,-123.837483,2.3,17.997,33.173,44.102,1154.87,0.0,0.311,18.281, NaN, NaN,23.762,   NaN,18.52,1015.38,76.66,18.31,334.5,334.2,6.8,7.8,160.3,179.4,2.9,4.0,NaN, NaN,18.0,242.0,NaN,1184200342,NaN,2,10.1,001942,   NaN,242.0,     NaN,      NaN,9.86,NaN,NaN,18.390, NaN,NaN,NaN, NaN, NaN
20070712,003251,1211552,32.842251,-123.838893,2.3,18.011,33.173,44.114,1124.01,0.0,0.305,18.289, NaN, NaN,23.757,   NaN,18.52,1015.39,76.57,18.29,334.7,334.4,6.8,7.9,167.1,182.6,3.2,3.9,NaN, NaN,18.0,241.7,NaN,1184200371,NaN,2,10.1,001971,   NaN,241.7,     NaN,      NaN,10.05,NaN,NaN,18.404, NaN,NaN,NaN, NaN, NaN
20070712,003322,1211584,32.841548,-123.840415,2.3,18.027,33.172,44.129,1112.45,0.0,0.302,18.291, NaN, NaN,23.756,   NaN,18.55,1015.39,76.66,18.30,335.2,335.0,6.8,8.0,183.9,181.5,3.1,3.4,NaN, NaN,17.0,241.9,NaN,1184200402,NaN,2,10.2,002002,   NaN,241.9,     NaN,      NaN,9.79,NaN,NaN,18.420, NaN,NaN,NaN, NaN, NaN
20070712,003351,1211612,32.840881,-123.841841,2.3,18.029,33.173,44.131,1106.43,0.0,0.301,18.297, NaN, NaN,23.757,   NaN,18.58,1015.40,76.71,18.30,337.0,335.9,7.0,7.8,168.3,180.2,2.8,3.7,NaN, NaN,17.0,242.0,NaN,1184200431,NaN,2,10.2,002031,   NaN,242.0,     NaN,      NaN,9.94,NaN,NaN,18.422, NaN,NaN,NaN, NaN, NaN
20070712,003422,1211643,32.840175,-123.843355,2.3,18.029,33.173,44.132,1086.96,0.0,0.297,18.301, NaN, NaN,23.756,   NaN,18.57,1015.40,76.74,18.29,337.0,336.0,7.0,7.7,169.6,183.8,3.0,4.3,NaN, NaN,17.0,241.9,NaN,1184200462,NaN,2,10.2,002062,   NaN,241.9,     NaN,      NaN,10.09,NaN,NaN,18.422, NaN,NaN,NaN, NaN, NaN
20070712,003452,1211673,32.839485,-123.844810,2.3,18.031,33.176,44.134,1059.52,0.0,0.291,18.301, NaN, NaN,23.756,   NaN,18.55,1015.35,76.79,18.29,335.6,335.7,6.9,7.8,172.8,184.8,3.2,4.1,NaN, NaN,18.0,241.9,NaN,1184200492,NaN,2,10.1,002092,   NaN,241.9,     NaN,      NaN,10.01,NaN,NaN,18.424, NaN,NaN,NaN, NaN, NaN
20070712,003521,1211702,32.838833,-123.846213,2.3,18.040,33.178,44.145,1041.22,0.0,0.287,18.301, NaN, NaN,23.753,   NaN,18.55,1015.37,76.93,18.30,335.6,335.4,6.8,7.8,174.6,184.2,3.4,4.3,NaN, NaN,18.0,242.0,NaN,1184200521,NaN,2,10.0,002121,   NaN,242.0,     NaN,      NaN,9.79,NaN,NaN,18.433, NaN,NaN,NaN, NaN, NaN
20070712,003552,1211733,32.838138,-123.847696,2.3,18.063,33.179,44.170,1026.41,0.0,0.284,18.301, NaN, NaN,23.742,   NaN,18.53,1015.39,76.93,18.32,336.3,335.9,6.9,7.8,181.7,185.0,3.1,4.1,NaN, NaN,18.0,242.1,NaN,1184200552,NaN,2,10.0,002152,   NaN,242.1,     NaN,      NaN,9.88,NaN,NaN,18.456, NaN,NaN,NaN, NaN, NaN
20070712,003621,1211762,32.837470,-123.849081,2.3,18.107,33.180,44.214,1017.70,0.0,0.282,18.308, NaN, NaN,23.735,   NaN,18.52,1015.38,76.86,18.30,336.0,335.9,7.0,7.9,172.7,181.6,3.0,3.8,NaN, NaN,18.0,241.5,NaN,1184200581,NaN,2,10.0,002181,   NaN,241.5,     NaN,      NaN,9.73,NaN,NaN,18.500, NaN,NaN,NaN, NaN, NaN
20070712,003651,1211792,32.836785,-123.850518,2.3,18.139,33.179,44.246,1020.37,0.0,0.283,18.311, NaN, NaN,23.730,   NaN,18.53,1015.37,76.91,18.30,335.6,335.6,6.9,7.8,174.9,185.9,3.4,3.9,NaN, NaN,18.0,241.9,NaN,1184200611,NaN,2,10.0,002211,   NaN,241.9,     NaN,      NaN,9.81,NaN,NaN,18.532, NaN,NaN,NaN, NaN, NaN
20070712,003721,1211822,32.836110,-123.851956,2.3,18.157,33.179,44.262,1013.40,0.0,0.281,18.322, NaN, NaN,23.722,   NaN,18.52,1015.35,77.07,18.30,335.2,335.1,6.9,7.9,178.5,182.9,2.7,3.2,NaN, NaN,19.0,242.1,NaN,1184200641,NaN,2,10.0,002241,   NaN,242.1,     NaN,      NaN,9.77,NaN,NaN,18.550, NaN,NaN,NaN, NaN, NaN
20070712,003752,1211853,32.835400,-123.853443,2.3,18.185,33.176,44.288,1023.13,0.0,0.283,18.335, NaN, NaN,23.721,   NaN,18.52,1015.34,77.26,18.30,335.1,334.9,6.7,7.8,179.2,180.3,2.9,3.4,NaN, NaN,18.0,242.0,NaN,1184200671,NaN,2,10.0,002272,   NaN,242.0,     NaN,      NaN,9.85,NaN,NaN,18.578, NaN,NaN,NaN, NaN, NaN